AirNav   Air Wisconsin pilot careers
 
 690 users online  

6A4 Johnson County Airport
Mountain City, Tennessee, USA

GOING TO MOUNTAIN CITY?


FAA INFORMATION EFFECTIVE 19 JULY 2018

Location

FAA Identifier: 6A4
Lat/Long: 36-25-04.2000N / 081-49-30.5000W
36-25.070000N / 081-49.508333W
36.4178333 / -81.8251389
(estimated)
Elevation: 2240.4 ft. / 683 m (estimated)
Variation: 07W (2010)
From city: 4 miles S of MOUNTAIN CITY, TN
Time zone: UTC -4 (UTC -5 during Standard Time)
Zip code: 37683

Airport Operations

Airport use: Open to the public
Activation date: 09/1971
Control tower: no
ARTCC: ATLANTA CENTER
FSS: NASHVILLE FLIGHT SERVICE STATION
NOTAMs facility: BNA (NOTAM-D service available)
Attendance: 0900-1800
OTHER HRS BY REQUEST.
Wind indicator: lighted
Segmented circle: yes

Airport Communications

CTAF/UNICOM: 122.7
WX AWOS-3: 126.225 (423-727-4365)
TRI CITY APPROACH: 134.425
TRI CITY DEPARTURE: 134.425
WX AWOS-3PT at 0A9 (17 nm W): 135.675 (423-543-1801)
WX AWOS-3 at VJI (19 nm NW): 128.125 (276-628-2940)
WX AWOS-3 at GEV (20 nm E): 120.675 (336-982-5555)
  • APCH/DEP SERVICE PROVIDED BY ATLANTA ARTCC ON FREQS 125.15/263.0 (HICKORY RCAG) WHEN TRI-CITIES RGNL APCH CLSD.

Nearby radio navigation aids

VOR radial/distance  VOR name  Freq  Var
HMVr098/14.7HOLSTON MOUNTAIN VORTAC114.6004W
GZGr155/27.3GLADE SPRING VOR/DME110.2002W

 
NDB name  Hdg/Dist  Freq  Var  ID
HEMLOCK011/16.132002WBAR -... .- .-.
ASHEE275/24.341007WJUH .--- ..- ....

Airport Services

Fuel available: 100LL JET-A+
Parking: hangars and tiedowns
Airframe service: MAJOR
Powerplant service: MAJOR
Bottled oxygen: NONE
Bulk oxygen: NONE

Runway Information

Runway 6/24

Dimensions: 4498 x 75 ft. / 1371 x 23 m
Surface: asphalt, in good condition
Weight bearing capacity: 
Double wheel: 26.0
Double tandem: 37.0
RUNWAY 6  RUNWAY 24
Latitude: 36-24.875335N36-25.265998N
Longitude: 081-49.897775W081-49.118302W
Elevation: 2239.7 ft.2240.4 ft.
Traffic pattern: rightleft
Runway heading: 065 magnetic, 058 true245 magnetic, 238 true
Markings: basic, in good conditionbasic, in good condition
Runway end identifier lights: nono
Touchdown point: yes, no lightsyes, no lights
Obstructions: 121 ft. tree, 2100 ft. from runway, 337 ft. right of centerline, 15:1 slope to clear135 ft. pline, 1901 ft. from runway, 404 ft. left of centerline, 12:1 slope to clear

Airport Ownership and Management from official FAA records

Ownership: Publicly-owned
Owner: JOHNSON COUNTY
CO COURTHSE; 222 W MAIN ST
MOUNTAIN CITY, TN 37683
Phone 423-727-9696
Manager: DAVE GARRIS
611 AIRPORT ROAD
MOUNTAIN CITY, TN 37683
Phone 423-727-1223

Airport Operational Statistics

Aircraft based on the field: 20
Single engine airplanes: 19
Ultralights: 1
    
Aircraft operations: avg 40/week *
48% local general aviation
45% transient general aviation
7% air taxi
* for 12-month period ending 31 December 2015

Additional Remarks

MOUNTAINOUS TERRAIN; HIGH PEAKS ALL QUADRANTS.
NIGHT OPNS NOT RECOMMENDED FOR TRANSIENT TFC DUE TO TERRAIN.
BIRD & DEER ACTIVITY INVOF ARPT.
FOR FBO SVCS CALL 423-727-1223.
COLD TEMPERATURE RESTRICTED AIRPORT. ALTITUDE CORRECTION REQUIRED AT OR BELOW -12C.

Instrument Procedures

NOTE: All procedures below are presented as PDF files. If you need a reader for these files, you should download the free Adobe Reader.

NOT FOR NAVIGATION. Please procure official charts for flight.
FAA instrument procedures published for use from 19 July 2018 at 0901Z to 16 August 2018 at 0900Z.

 
IAPs - Instrument Approach Procedures
RNAV (GPS) RWY 06 **CHANGED**   download (360KB)
RNAV (GPS) RWY 24 **CHANGED**   download (331KB)
NOTE: Special Take-Off Minimums/Departure Procedures apply   download (126KB)

Other nearby airports with instrument procedures:

0A9 - Elizabethton Municipal Airport (17 nm W)
KVJI - Virginia Highlands Airport (19 nm NW)
KGEV - Ashe County Airport (20 nm E)
KTRI - Tri-Cities Airport (28 nm W)
KMKJ - Mountain Empire Airport (37 nm NE)
 
Loc | Ops | Rwys | IFR | FBO | Links
Com | Nav | Svcs | Stats | Notes


 
Area around 6A4 (Johnson County Airport)
 
Road maps at: MapQuest Bing Google
 
Aerial photo
WARNING: Photo may not be current or correct
Aerial photo of 6A4 (Johnson County Airport)
Do you have a better or more recent aerial photo of Johnson County Airport that you would like to share? If so, please send us your photo.

 
Sectional chart

 
Airport distance calculator
Flying to Johnson County Airport? Find the distance to fly.

From to 6A4

Sunrise and sunset
Times for 15-Aug-2018
 Local
(UTC-4)
 Zulu
(UTC)
Morning civil twilight06:1910:19
Sunrise06:4610:46
Sunset20:1700:17
Evening civil twilight20:4500:45

Current date and time
Zulu (UTC)  15-Aug-2018 04:15:26
Local (UTC-4)  15-Aug-2018 00:15:26
 
METAR
KTNB 
16nm SE 
118.525 828-268-8921
150355Z AUTO 00000KT 7SM CLR 16/16 A3021 RMK AO2 T01600160
K0A9 
17nm W 
150355Z AUTO 00000KT 10SM 19/18 A3012 RMK AO2
KVJI 
18nm NW 
150355Z AUTO 00000KT 3SM BR CLR 20/20 A3014 RMK AO2 T01970197
KGEV 
20nm E 
150355Z AUTO 00000KT 10SM BKN060 OVC075 19/16 A3019 RMK AO2 T01870156
KTRI 
28nm W 
150353Z 00000KT 6SM BR FEW250 19/19 A3010 RMK AO2 SLP170 T01940194
7A8 
30nm S 
SuperAWOS
150255Z AUTO 00000KT 10SM A3023
TAF
KTRI 
28nm W 
141730Z 1418/1518 00000KT P6SM SCT050 FM150300 00000KT P6SM SCT090 BKN200 FM150600 00000KT 4SM BR FEW250 TEMPO 1508/1512 1SM BR SCT002 FM151400 VRB02KT P6SM FEW040 BKN250
NOTAMs
Click for the latest NOTAMs
NOTAMs are issued by the DoD/FAA and will open in a separate window not controlled by AirNav.

 

 
 

FBO, Fuel Providers, and Aircraft Ground Support

  
 Business Name 
 
 Contact 
 
 Services / Description 
 
Fuel Prices
 
Comments
  
Doe Mountain Aviation Services 423-727-1223
no information available

If you are affiliated with Doe Mountain Aviation Services and would like to show here your services, contact info, web link, logo, and more, click here
100LL Jet A
FS $5.09 $4.79 
 Updated 02-Aug-2018
 
   2 read write
FS=Full service
Update Fuel Prices
 

Would you like to see your business listed on this page?

 If your business provides an interesting product or service to pilots, flight crews, aircraft, or users of the Johnson County Airport, you should consider listing it here.  To start the listing process, click on the button below
 
Add a business
 

Other Pages about Johnson County Airport

johnsoncountyairport.com
 
Update a link
 
Copyright © AirNav, LLC. All rights reserved. Privacy Policy  Contact